Location: Fort Worth, Tx
(32.7431°N, 97.3695°W)
Time: 01:49:51
(UTC-04:00)

Courier 1B - Pass Details

Date: 03 March 2024
Orbit: 962 x 1208 km, 28.3° (Epoch: 22 April)

Event Time Altitude Azimuth Distance (km) Brightness Sun altitude
Rises 23:10:01 0° 252° (WSW) 3,866 11.1 -46.0°
Reaches altitude 10° 23:12:52 10° 248° (WSW) 2,872 10.2 -46.6°
Enters shadow 23:13:01 11° 248° (WSW) 2,823 10.2 -46.6°
